User: anonymous   Login
Location: Unspecified
(0.0000°N, 0.0000°E)
Time: 19:01:10
(UTC+00:00)
Language:

ADRAS-J - Orbit

View from above orbital plane
View from above orbital plane
View from above satellite
View from above satellite

Ground track
Ground track

The orbit is defined by the following mean orbital elements,

1 58992U          26145.60614737 +.00000000 +00000-0 +10483-2 0 00006
2 58992  98.2237 173.7133 0176430 191.8514 167.8554 15.41142300    08
Epoch (UTC): 25 May 2026 14:32:51
Eccentricity: 0.0176430
inclination: 98.2237°
perigee height: 322 km
apogee height: 563 km
right ascension of ascending node: 173.7133°
argument of perigee: 191.8514°
revolutions per day: 15.41142300
mean anomaly at epoch: 167.8554°

The dashed part of the orbit path shows where the satellite is in the earth's shadow,  

DLR